Weather History for KSLH - November, 2013

Change the Weather History Date:

Sunday, November 10, 2013

  Actual Average (KPLN) Record (KPLN)
Temperature  
Mean Temperature 37 °F -  
Max Temperature 42 °F 43 °F 64 °F (1999)
Min Temperature 32 °F 30 °F 12 °F (1956)
Degree Days  
Heating Degree Days 28    
Moisture  
Dew Point 31 °F    
Average Humidity 75    
Maximum Humidity 86    
Minimum Humidity 56    
Precipitation  
Precipitation 0.00 in - - ()
Sea Level Pressure  
Sea Level Pressure 29.99 in    
Wind  
Wind Speed 16 mph (West)    
Max Wind Speed 26 mph    
Max Gust Speed 36 mph    
Visibility 10 miles    
Events Rain , Snow    
Averages and records for this station are not official NWS values.
T = Trace of Precipitation, MM = Missing Value Source: NWS Daily Summary

Daily Weather History Graph

Daily Weather History Graph

Search for Another Location

Airport or City:

Trip Planner

Search our weather history database for the weather conditions in past years. The results will help you decide how hot, cold, wet, or windy it might be!

Date:

Astronomy

Nov. 10, 2013 Rise Set
Actual Time 7:30 AM EST 5:12 PM EST
Civil Twilight 6:59 AM EST 5:44 PM EST
Nautical Twilight 6:23 AM EST 6:20 PM EST
Astronomical Twilight 5:48 AM EST 6:54 PM EST
Moon 1:37 PM EST (11/10) No Moon Set
Length of Visible Light 10h 45m
Length of Day
9h 41m
First Quarter, 55% of the Moon is Illuminated
Nov 10
First Quarter
Nov 17
Full
Nov 25
Last Quarter
Dec 2
New
Dec 9
First Quarter

Hourly Weather History & Observations

Time (EST) Temp. Windchill Dew Point Humidity Pressure Visibility Wind Dir Wind Speed Gust Speed Precip Events Conditions
12:16 AM 42.4 °F 34.7 °F 32.9 °F 69% 29.71 in 10.0 mi West 16.1 mph 23.0 mph N/A   Overcast
12:36 AM 42.4 °F 34.4 °F 32.9 °F 69% 29.72 in 10.0 mi West 17.3 mph 26.5 mph N/A   Overcast
12:56 AM 42.3 °F 34.4 °F 33.1 °F 70% 29.72 in 10.0 mi West 16.1 mph 25.3 mph N/A   Overcast
1:16 AM 42.1 °F 34.2 °F 33.3 °F 71% 29.73 in 10.0 mi West 16.1 mph 32.2 mph N/A   Mostly Cloudy
1:36 AM 41.9 °F 33.1 °F 33.8 °F 73% 29.73 in 10.0 mi West 19.6 mph 31.1 mph N/A   Overcast
1:56 AM 41.9 °F 32.8 °F 33.8 °F 73% 29.74 in 10.0 mi West 20.7 mph 28.8 mph N/A   Overcast
2:15 AM 41.9 °F 33.4 °F 33.8 °F 73% 29.74 in 10.0 mi West 18.4 mph 28.8 mph N/A   Overcast
2:36 AM 41.5 °F 33.5 °F 33.8 °F 74% 29.75 in 10.0 mi West 16.1 mph 26.5 mph N/A   Overcast
2:56 AM 41.4 °F 34.3 °F 33.8 °F 74% 29.75 in 10.0 mi West 12.7 mph 23.0 mph N/A   Overcast
3:16 AM 41.4 °F 33.0 °F 34.0 °F 75% 29.75 in 10.0 mi West 17.3 mph 26.5 mph N/A   Overcast
3:36 AM 41.4 °F 32.1 °F 33.3 °F 73% 29.76 in 10.0 mi West 20.7 mph 31.1 mph N/A   Overcast
3:56 AM 40.6 °F 31.7 °F 34.0 °F 77% 29.77 in 10.0 mi West 18.4 mph 25.3 mph N/A Rain Light Rain
4:16 AM 40.1 °F 31.3 °F 34.3 °F 80% 29.78 in 7.0 mi West 17.3 mph 29.9 mph N/A Rain Light Rain
4:36 AM 40.1 °F 31.3 °F 34.9 °F 82% 29.79 in 7.0 mi West 17.3 mph 25.3 mph N/A Rain Light Rain
4:56 AM 39.2 °F 29.8 °F 34.7 °F 84% 29.80 in 7.0 mi West 18.4 mph 24.2 mph N/A Snow Light Snow
5:16 AM 38.8 °F 31.2 °F 35.1 °F 86% 29.81 in 5.0 mi WNW 12.7 mph 25.3 mph N/A Snow Light Snow
5:35 AM 39.2 °F 29.6 °F 34.7 °F 84% 29.82 in 7.0 mi WNW 19.6 mph 24.2 mph N/A Rain Light Rain
5:56 AM 38.8 °F 29.7 °F 34.2 °F 83% 29.83 in 10.0 mi WNW 17.3 mph 32.2 mph N/A   Mostly Cloudy
6:16 AM 39.0 °F 29.9 °F 33.1 °F 79% 29.85 in 10.0 mi NW 17.3 mph 31.1 mph N/A   Mostly Cloudy
6:36 AM 38.5 °F 28.9 °F 33.1 °F 81% 29.86 in 7.0 mi NW 18.4 mph 29.9 mph N/A   Mostly Cloudy
6:56 AM 38.3 °F 27.1 °F 33.1 °F 81% 29.88 in 10.0 mi WNW 25.3 mph 34.5 mph N/A   Mostly Cloudy
7:16 AM 38.3 °F 27.8 °F 32.2 °F 79% 29.88 in 10.0 mi WNW 21.9 mph 31.1 mph N/A   Overcast
7:36 AM 37.9 °F 27.1 °F 31.8 °F 79% 29.90 in 10.0 mi NW 23.0 mph 31.1 mph N/A   Mostly Cloudy
7:56 AM 37.8 °F 27.1 °F 31.8 °F 79% 29.92 in 10.0 mi WNW 21.9 mph 31.1 mph N/A   Mostly Cloudy
8:16 AM 38.1 °F 27.9 °F 32.0 °F 79% 29.94 in 10.0 mi NW 20.7 mph 32.2 mph N/A   Overcast
8:36 AM 38.3 °F 28.1 °F 32.0 °F 78% 29.96 in 10.0 mi WNW 20.7 mph 27.6 mph N/A   Overcast
8:56 AM 38.3 °F 28.4 °F 32.0 °F 78% 29.98 in 10.0 mi WNW 19.6 mph 26.5 mph N/A   Mostly Cloudy
9:16 AM 38.5 °F 27.1 °F 31.5 °F 76% 29.99 in 10.0 mi WNW 26.5 mph 33.4 mph N/A   Mostly Cloudy
9:36 AM 39.7 °F 30.3 °F 31.1 °F 71% 29.99 in 10.0 mi WNW 19.6 mph 35.7 mph N/A   Scattered Clouds
9:55 AM 40.1 °F 30.7 °F 30.9 °F 70% 30.01 in 10.0 mi WNW 19.6 mph 31.1 mph N/A   Scattered Clouds
10:16 AM 40.6 °F 30.9 °F 30.4 °F 67% 30.03 in 10.0 mi NW 21.9 mph 34.5 mph N/A   Scattered Clouds
10:36 AM 40.8 °F 30.9 °F 30.9 °F 68% 30.04 in 10.0 mi WNW 23.0 mph 32.2 mph N/A   Scattered Clouds
10:56 AM 41.4 °F 31.9 °F 31.3 °F 67% 30.06 in 10.0 mi NW 21.9 mph 29.9 mph N/A   Scattered Clouds
11:16 AM 40.8 °F 31.7 °F 31.3 °F 69% 30.07 in 10.0 mi NW 19.6 mph 28.8 mph N/A   Scattered Clouds
11:36 AM 40.3 °F 30.2 °F 29.5 °F 65% 30.08 in 10.0 mi NW 23.0 mph 34.5 mph N/A   Scattered Clouds
11:56 AM 39.4 °F 30.4 °F 32.0 °F 75% 30.08 in 7.0 mi WNW 17.3 mph 31.1 mph N/A   Scattered Clouds
12:16 PM 41.7 °F 33.4 °F 30.2 °F 64% 30.08 in 10.0 mi WNW 17.3 mph 26.5 mph N/A   Mostly Cloudy
12:36 PM 41.9 °F 32.3 °F 27.3 °F 56% 30.08 in 10.0 mi NW 23.0 mph 29.9 mph N/A   Mostly Cloudy
12:56 PM 40.8 °F 30.9 °F 26.8 °F 57% 30.09 in 10.0 mi NW 23.0 mph 33.4 mph N/A   Overcast
1:16 PM 40.1 °F 30.2 °F 27.9 °F 62% 30.09 in 10.0 mi NW 21.9 mph 28.8 mph N/A   Overcast
1:36 PM 38.5 °F 29.6 °F 32.2 °F 78% 30.10 in 5.0 mi West 16.1 mph 25.3 mph N/A   Haze
1:56 PM 37.0 °F 27.7 °F 32.7 °F 84% 30.11 in 2.0 mi NW 16.1 mph 21.9 mph N/A Rain Light Rain
2:16 PM 37.4 °F 29.3 °F 33.1 °F 84% 30.11 in 10.0 mi WNW 12.7 mph 20.7 mph N/A   Scattered Clouds
2:36 PM 39.0 °F 31.8 °F 32.4 °F 77% 30.12 in 10.0 mi NW 11.5 mph 21.9 mph N/A   Scattered Clouds
2:56 PM 39.0 °F 31.0 °F 32.0 °F 76% 30.13 in 10.0 mi NW 13.8 mph 23.0 mph N/A   Mostly Cloudy
3:16 PM 38.7 °F 31.4 °F 31.5 °F 75% 30.13 in 10.0 mi NW 11.5 mph 24.2 mph N/A   Mostly Cloudy
3:36 PM 39.2 °F 31.2 °F 31.1 °F 73% 30.14 in 10.0 mi WNW 13.8 mph - N/A   Mostly Cloudy
3:55 PM 39.2 °F 33.6 °F 30.6 °F 71% 30.14 in 10.0 mi WNW 8.1 mph - N/A   Overcast
4:16 PM 39.2 °F 33.6 °F 29.3 °F 68% 30.14 in 10.0 mi WNW 8.1 mph - N/A   Overcast
4:36 PM 39.4 °F 34.5 °F 28.8 °F 66% 30.14 in 10.0 mi West 6.9 mph - N/A   Overcast
4:56 PM 39.6 °F 30.3 °F 29.3 °F 67% 30.15 in 7.0 mi West 18.4 mph 23.0 mph N/A   Overcast
5:16 PM 37.0 °F 31.6 °F 32.0 °F 82% 30.15 in 10.0 mi West 6.9 mph - N/A   Overcast
5:36 PM 37.0 °F 31.0 °F 32.0 °F 82% 30.15 in 10.0 mi West 8.1 mph - N/A   Mostly Cloudy
5:56 PM 36.9 °F 33.1 °F 31.1 °F 80% 30.15 in 10.0 mi WSW 4.6 mph - N/A   Mostly Cloudy
6:16 PM 37.0 °F 34.5 °F 30.7 °F 78% 30.15 in 10.0 mi WSW 3.5 mph - N/A   Overcast
6:36 PM 36.9 °F 34.3 °F 30.0 °F 76% 30.15 in 10.0 mi WSW 3.5 mph - N/A   Mostly Cloudy
6:56 PM 36.5 °F 33.9 °F 30.0 °F 77% 30.15 in 10.0 mi SW 3.5 mph - N/A   Mostly Cloudy
7:16 PM 36.0 °F 33.3 °F 30.2 °F 80% 30.14 in 10.0 mi SW 3.5 mph - N/A   Mostly Cloudy
7:36 PM 36.0 °F 33.3 °F 30.0 °F 79% 30.14 in 10.0 mi WSW 3.5 mph - N/A   Mostly Cloudy
7:56 PM 35.6 °F 32.8 °F 30.0 °F 80% 30.13 in 10.0 mi SW 3.5 mph - N/A   Scattered Clouds
8:16 PM 34.3 °F 31.4 °F 29.7 °F 83% 30.13 in 10.0 mi SSW 3.5 mph - N/A   Clear
8:36 PM 32.9 °F 29.8 °F 28.9 °F 85% 30.12 in 10.0 mi SW 3.5 mph - N/A   Clear
8:56 PM 32.9 °F 29.8 °F 28.9 °F 85% 30.11 in 10.0 mi SSW 3.5 mph - N/A   Clear
9:16 PM 32.5 °F - 28.8 °F 86% 30.11 in 10.0 mi Calm Calm - N/A   Clear
9:36 PM 35.1 °F 29.3 °F 28.0 °F 76% 30.10 in 10.0 mi South 6.9 mph - N/A   Clear
9:56 PM 35.6 °F 30.7 °F 28.0 °F 74% 30.09 in 10.0 mi South 5.8 mph - N/A   Clear
10:16 PM 36.3 °F 30.8 °F 28.9 °F 75% 30.07 in 10.0 mi South 6.9 mph - N/A   Clear
10:36 PM 36.9 °F 31.4 °F 29.3 °F 74% 30.07 in 10.0 mi South 6.9 mph - N/A   Clear
10:56 PM 36.9 °F 33.1 °F 29.8 °F 76% 30.06 in 10.0 mi South 4.6 mph - N/A   Clear
11:16 PM 37.6 °F 31.6 °F 30.7 °F 76% 30.04 in 10.0 mi SSW 8.1 mph - N/A   Clear
11:36 PM 37.8 °F 31.3 °F 31.1 °F 77% 30.03 in 10.0 mi SW 9.2 mph - N/A   Clear
11:56 PM 38.3 °F 32.5 °F 31.6 °F 77% 30.03 in 10.0 mi SSW 8.1 mph - N/A   Clear